Starlink 1338

operational
NORAD ID: 45532 Int'l Des: 2020-025 Owner: SPXS Country: US Constellation: starlink
LEOCIRCULARSTARLINK_TYPE

Starlink 1338について

説明を読み込み中...

リアルタイム位置

3D地球を読み込み中...

次回通過

高度履歴

Altitude vs Time

uPlot chart will show altitude changes over time

軌道要素

1 45532U 20025B 25353.00002315 .00007452 00000-0 41417-3 0 9995
2 45532 53.0557 108.6400 0000789 62.6340 277.1284 15.14652614 5797
Epoch: Dec 19, 2025 • Age: 5 hours

現在のステータス

高度 526.7 km
速度 7.61 km/s
衛星直下点 47.37°N, 3.07°W
打ち上げ日 Apr 22, 2020
運用期間 5.6 years
タイプ internet

技術仕様

分類 Payload
質量 260.00 kg
乾燥質量 248.00 kg
総質量 260.00 kg
長さ 0.20 m
直径 2.80 m
スパン 9.00 m
形状 Box + pan
製造者 SPXS
バスタイプ Starlink
フェーズステータス In Orbit
所有者/国 SPXS/US

大規模コンステレーション

Loading constellations...